TimeMST,TemperatureF,Dew PointF,Humidity,Sea Level PressureIn,VisibilityMPH,Wind Direction,Wind SpeedMPH,Gust SpeedMPH,PrecipitationIn,Events,Conditions,WindDirDegrees,DateUTC
12:53 AM,-6.0,-11.0,79,30.54,10.0,NE,4.6,-,N/A,,Clear,50,2013-01-20 07:53:00
1:53 AM,-4.0,-8.0,83,30.51,10.0,West,4.6,-,N/A,,Clear,260,2013-01-20 08:53:00
2:53 AM,-4.0,-8.0,83,30.51,10.0,ESE,6.9,-,N/A,,Clear,120,2013-01-20 09:53:00
3:53 AM,-0.0,-5.1,79,30.46,10.0,Calm,Calm,-,N/A,,Clear,0,2013-01-20 10:53:00
4:53 AM,-2.9,-8.0,79,30.50,10.0,East,3.5,-,N/A,,Clear,80,2013-01-20 11:53:00
5:53 AM,-2.0,-6.0,83,30.53,10.0,West,4.6,-,N/A,,Clear,280,2013-01-20 12:53:00
6:53 AM,-2.0,-7.1,79,30.57,10.0,NW,5.8,-,N/A,,Clear,310,2013-01-20 13:53:00
7:53 AM,-6.0,-9.9,83,30.60,10.0,South,4.6,-,N/A,,Clear,190,2013-01-20 14:53:00
8:53 AM,-0.9,-7.1,75,30.63,10.0,East,4.6,-,N/A,,Clear,100,2013-01-20 15:53:00
9:53 AM,8.1,1.9,76,30.61,10.0,Calm,Calm,-,N/A,,Clear,0,2013-01-20 16:53:00
10:53 AM,9.0,-0.0,67,30.60,10.0,East,3.5,-,N/A,,Clear,90,2013-01-20 17:53:00
11:53 AM,17.1,3.9,56,30.54,10.0,Calm,Calm,-,N/A,,Clear,0,2013-01-20 18:53:00
12:53 PM,23.0,7.0,50,30.51,10.0,East,3.5,-,N/A,,Clear,80,2013-01-20 19:53:00
1:53 PM,27.0,9.0,47,30.46,10.0,East,3.5,-,N/A,,Clear,90,2013-01-20 20:53:00
2:53 PM,28.0,10.0,47,30.45,10.0,Calm,Calm,-,N/A,,Clear,0,2013-01-20 21:53:00
3:29 PM,35.6,12.2,38,30.25,10.0,North,16.1,-,N/A,,Clear,350,2013-01-20 22:29:00
3:53 PM,35.1,10.9,37,30.39,10.0,NNW,18.4,-,N/A,,Clear,340,2013-01-20 22:53:00
4:53 PM,30.9,12.9,47,30.43,10.0,North,12.7,-,N/A,,Clear,360,2013-01-20 23:53:00
5:53 PM,23.0,9.0,55,30.47,10.0,North,12.7,-,N/A,,Clear,350,2013-01-21 00:53:00
6:53 PM,21.0,8.1,57,30.49,10.0,NNW,3.5,-,N/A,,Clear,330,2013-01-21 01:53:00
7:53 PM,18.0,6.1,60,30.54,10.0,East,3.5,-,N/A,,Clear,90,2013-01-21 02:53:00
8:53 PM,19.0,6.1,57,30.51,10.0,NW,8.1,-,N/A,,Clear,310,2013-01-21 03:53:00
9:53 PM,15.1,5.0,64,30.48,10.0,West,3.5,-,N/A,,Clear,260,2013-01-21 04:53:00
10:53 PM,14.0,3.9,64,30.49,10.0,SSE,3.5,-,N/A,,Clear,150,2013-01-21 05:53:00
11:53 PM,9.0,1.9,73,30.48,10.0,Calm,Calm,-,N/A,,Clear,0,2013-01-21 06:53:00